Location: Observatoire
(46.1952°N, 5.3391°E)
Time: 23:13:47
(UTC+01:00)

A-11 Canister half - Pass Details

Date: 21 February 2026
Orbit: 1525 x 1683 km, 47.3° (Epoch: 5 March)

Event Time Altitude Azimuth Distance (km) Brightness Sun altitude
Rises 14:53:32 0° 206° (SSW) 4,761 12.8 27.2°
Reaches altitude 10° 14:56:59 10° 197° (SSW) 3,757 12.5 26.9°
Maximum altitude 15:05:12 35° 137° (SE) 2,309 10.3 26.0°
Drops below altitude 10° 15:13:16 10° 76° (ENE) 3,698 10.6 25.2°
Sets 15:16:37 0° 68° (ENE) 4,678 11.0 24.8°
